Weather History for Pinedale, WY

Change the Weather History Date:

Saturday, December 21, 2013

  Actual Average (KBPI) Record (KBPI)
Temperature  
Mean Temperature 13 °F 12 °F  
Max Temperature 26 °F 26 °F 47 °F (1980)
Min Temperature 0 °F -1 °F -46 °F (1990)
Degree Days  
Heating Degree Days 52 54  
Month to date heating degree days 1086  
Since 1 July heating degree days 3901  
Cooling Degree Days 0 0  
Month to date cooling degree days 0  
Year to date cooling degree days 35  
Moisture  
Dew Point 9 °F    
Average Humidity 80    
Maximum Humidity 92    
Minimum Humidity 59    
Precipitation  
Precipitation 0.00 in 0.01 in 0.11 in (2010)
Month to date precipitation 0.19  
Year to date precipitation 6.37  
Sea Level Pressure  
Sea Level Pressure 29.70 in    
Wind  
Wind Speed 10 mph (WNW)    
Max Wind Speed 28 mph    
Max Gust Speed 32 mph    
Visibility 10 miles    
Events Snow    
T = Trace of Precipitation, MM = Missing Value Source: NWS Daily Summary

Daily Weather History Graph

Daily Weather History Graph

Search for Another Location

Airport:

Trip Planner

Search our weather history database for the weather conditions in past years. The results will help you decide how hot, cold, wet, or windy it might be!

Date:

Astronomy

Dec. 21, 2013 Rise Set
Actual Time 7:46 AM MST 4:48 PM MST
Civil Twilight 7:14 AM MST 5:20 PM MST
Nautical Twilight 6:38 AM MST 5:56 PM MST
Astronomical Twilight 6:04 AM MST 6:30 PM MST
Moon 9:13 PM MST (12/21) 10:09 AM MST (12/21)
Length of Visible Light 10h 06m
Length of Day
9h 01m
Waning Gibbous, 84% of the Moon is Illuminated
Dec 21
Waning Gibbous
Dec 25
Last Quarter
Jan 1
New
Jan 7
First Quarter
Jan 15
Full

Hourly Weather History & Observations

Time (MST) Temp. Windchill Dew Point Humidity Pressure Visibility Wind Dir Wind Speed Gust Speed Precip Events Conditions
12:15 AM 12.2 °F 1.7 °F 6.8 °F 79% 29.63 in 10.0 mi WNW 6.9 mph - N/A   Overcast
12:35 AM 12.2 °F 2.9 °F 8.6 °F 85% 29.62 in 10.0 mi WNW 5.8 mph - N/A   Overcast
12:55 AM 12.2 °F 6.1 °F 8.6 °F 85% 29.61 in 10.0 mi WNW 3.5 mph - N/A   Overcast
1:15 AM 12.2 °F 2.9 °F 8.6 °F 85% 29.61 in 10.0 mi West 5.8 mph - N/A   Overcast
1:35 AM 14.0 °F 3.9 °F 8.6 °F 79% 29.61 in 5.0 mi WNW 6.9 mph - N/A Snow Light Snow
1:55 AM 12.2 °F 1.7 °F 8.6 °F 85% 29.61 in 10.0 mi West 6.9 mph - N/A   Mostly Cloudy
2:15 AM 12.2 °F 1.7 °F 8.6 °F 85% 29.61 in 10.0 mi West 6.9 mph - N/A   Overcast
2:35 AM 14.0 °F 3.9 °F 8.6 °F 79% 29.60 in 10.0 mi West 6.9 mph - N/A   Overcast
2:55 AM 12.2 °F 2.9 °F 8.6 °F 85% 29.61 in 10.0 mi WNW 5.8 mph - N/A   Overcast
3:15 AM 10.4 °F 4.0 °F 6.8 °F 85% 29.59 in 10.0 mi West 3.5 mph - N/A   Mostly Cloudy
3:35 AM 8.6 °F -3.7 °F 5.0 °F 85% 29.59 in 10.0 mi NW 8.1 mph - N/A   Clear
3:55 AM 5.0 °F -5.6 °F 3.2 °F 92% 29.59 in 10.0 mi West 5.8 mph - N/A   Scattered Clouds
4:15 AM 3.2 °F -10.3 °F 1.4 °F 92% 29.58 in 10.0 mi NW 8.1 mph - N/A   Clear
4:35 AM 3.2 °F -7.8 °F 1.4 °F 92% 29.58 in 10.0 mi NW 5.8 mph - N/A   Clear
4:55 AM 3.2 °F -6.2 °F 1.4 °F 92% 29.59 in 10.0 mi West 4.6 mph - N/A   Scattered Clouds
5:15 AM 1.4 °F -9.9 °F -0.4 °F 92% 29.59 in 10.0 mi West 5.8 mph - N/A   Mostly Cloudy
5:35 AM 3.2 °F -6.2 °F 1.4 °F 92% 29.59 in 10.0 mi NNW 4.6 mph - N/A   Scattered Clouds
5:55 AM 3.2 °F -9.1 °F 1.4 °F 92% 29.59 in 10.0 mi NW 6.9 mph - N/A   Clear
6:15 AM 3.2 °F - 1.4 °F 92% 29.60 in 10.0 mi Calm Calm - N/A   Clear
6:35 AM 3.2 °F -4.2 °F 1.4 °F 92% 29.60 in 10.0 mi West 3.5 mph - N/A   Scattered Clouds
6:55 AM -0.4 °F - -2.2 °F 92% 29.61 in 10.0 mi Calm Calm - N/A   Mostly Cloudy
7:15 AM 1.4 °F -11.3 °F -0.4 °F 92% 29.61 in 10.0 mi ESE 6.9 mph - N/A   Overcast
7:35 AM 1.4 °F -6.2 °F -0.4 °F 92% 29.61 in 10.0 mi WSW 3.5 mph - N/A   Overcast
7:55 AM -0.4 °F - -4.0 °F 85% 29.62 in 10.0 mi Calm Calm - N/A   Overcast
8:15 AM 1.4 °F - -0.4 °F 92% 29.63 in 10.0 mi Calm Calm - N/A   Overcast
8:35 AM 5.0 °F -2.1 °F 3.2 °F 92% 29.63 in 10.0 mi West 3.5 mph - N/A   Overcast
8:55 AM 8.6 °F -2.6 °F 5.0 °F 85% 29.63 in 10.0 mi WNW 6.9 mph - N/A   Overcast
9:15 AM 14.0 °F -0.8 °F 10.4 °F 86% 29.64 in 10.0 mi West 13.8 mph - N/A   Overcast
9:35 AM 17.6 °F 2.7 °F 10.4 °F 73% 29.65 in 10.0 mi WNW 16.1 mph - N/A   Mostly Cloudy
9:55 AM 17.6 °F 3.7 °F 10.4 °F 73% 29.66 in 10.0 mi West 13.8 mph - N/A   Scattered Clouds
10:15 AM 19.4 °F 5.0 °F 10.4 °F 68% 29.67 in 10.0 mi West 16.1 mph - N/A   Scattered Clouds
10:35 AM 19.4 °F 5.0 °F 12.2 °F 74% 29.67 in 10.0 mi WNW 16.1 mph 21.9 mph N/A   Overcast
10:55 AM 21.2 °F 6.0 °F 12.2 °F 68% 29.67 in 10.0 mi West 19.6 mph 23.0 mph N/A   Mostly Cloudy
11:15 AM 23.0 °F 6.6 °F 14.0 °F 68% 29.67 in 7.0 mi WNW 25.3 mph 29.9 mph N/A   Scattered Clouds
11:35 AM 23.0 °F 7.2 °F 14.0 °F 68% 29.67 in 7.0 mi WNW 23.0 mph 27.6 mph N/A   Scattered Clouds
11:55 AM 23.0 °F 6.3 °F 14.0 °F 68% 29.66 in 7.0 mi WNW 26.5 mph 32.2 mph N/A   Clear
12:15 PM 23.0 °F 6.3 °F 14.0 °F 68% 29.67 in 7.0 mi WNW 26.5 mph - N/A   Clear
12:35 PM 23.0 °F 6.3 °F 14.0 °F 68% 29.66 in 10.0 mi WNW 26.5 mph 32.2 mph N/A   Clear
12:55 PM 23.0 °F 6.3 °F 14.0 °F 68% 29.66 in 7.0 mi WNW 26.5 mph 29.9 mph N/A   Clear
1:15 PM 24.8 °F 8.4 °F 15.8 °F 69% 29.66 in 7.0 mi WNW 27.6 mph 32.2 mph N/A   Clear
1:35 PM 24.8 °F 9.6 °F 15.8 °F 69% 29.67 in 7.0 mi WNW 23.0 mph 31.1 mph N/A   Clear
1:55 PM 24.8 °F 9.0 °F 15.8 °F 69% 29.68 in 10.0 mi WNW 25.3 mph 29.9 mph N/A   Clear
2:15 PM 26.6 °F 12.7 °F 15.8 °F 64% 29.69 in 10.0 mi WNW 20.7 mph - N/A   Clear
2:35 PM 26.6 °F 13.1 °F 14.0 °F 59% 29.70 in 10.0 mi WNW 19.6 mph 25.3 mph N/A   Clear
2:55 PM 24.8 °F 9.3 °F 14.0 °F 64% 29.71 in 10.0 mi WNW 24.2 mph - N/A   Clear
3:15 PM 24.8 °F 9.6 °F 14.0 °F 64% 29.71 in 10.0 mi WNW 23.0 mph 29.9 mph N/A   Clear
3:35 PM 23.0 °F 7.6 °F 15.8 °F 74% 29.73 in 10.0 mi WNW 21.9 mph 26.5 mph N/A   Scattered Clouds
3:55 PM 23.0 °F 8.7 °F 14.0 °F 68% 29.74 in 10.0 mi WNW 18.4 mph 25.3 mph N/A   Scattered Clouds
4:15 PM 23.0 °F 8.3 °F 14.0 °F 68% 29.75 in 10.0 mi WNW 19.6 mph - N/A   Clear
4:35 PM 23.0 °F 8.3 °F 15.8 °F 74% 29.77 in 7.0 mi WNW 19.6 mph 27.6 mph N/A   Clear
4:55 PM 21.2 °F 6.0 °F 14.0 °F 74% 29.77 in 10.0 mi WNW 19.6 mph 24.2 mph N/A   Clear
5:15 PM 21.2 °F 6.4 °F 14.0 °F 74% 29.79 in 10.0 mi WNW 18.4 mph 25.3 mph N/A   Clear
5:35 PM 19.4 °F 4.5 °F 12.2 °F 74% 29.79 in 10.0 mi WNW 17.3 mph - N/A   Clear
5:55 PM 17.6 °F 3.2 °F 12.2 °F 79% 29.80 in 10.0 mi WNW 15.0 mph - N/A   Clear
6:15 PM 15.8 °F 2.1 °F 10.4 °F 79% 29.81 in 10.0 mi WNW 12.7 mph - N/A   Clear
6:35 PM 14.0 °F 0.5 °F 10.4 °F 86% 29.82 in 10.0 mi WNW 11.5 mph - N/A   Clear
6:55 PM 12.2 °F 1.7 °F 8.6 °F 85% 29.82 in 10.0 mi West 6.9 mph - N/A   Clear
7:15 PM 10.4 °F -1.5 °F 8.6 °F 92% 29.82 in 10.0 mi WNW 8.1 mph - N/A   Clear
7:35 PM 8.6 °F -4.7 °F 5.0 °F 85% 29.83 in 10.0 mi WNW 9.2 mph - N/A   Clear
7:55 PM 12.2 °F -2.5 °F 8.6 °F 85% 29.84 in 10.0 mi WNW 12.7 mph - N/A   Scattered Clouds
8:15 PM 12.2 °F -1.8 °F 8.6 °F 85% 29.85 in 10.0 mi WNW 11.5 mph - N/A   Mostly Cloudy
8:35 PM 12.2 °F -1.0 °F 8.6 °F 85% 29.85 in 10.0 mi WNW 10.4 mph - N/A   Mostly Cloudy
8:55 PM 10.4 °F -3.3 °F 6.8 °F 85% 29.85 in 10.0 mi NW 10.4 mph - N/A   Mostly Cloudy
9:15 PM 12.2 °F 0.7 °F 8.6 °F 85% 29.85 in 10.0 mi NNW 8.1 mph - N/A   Scattered Clouds
9:35 PM 14.0 °F -1.4 °F 10.4 °F 86% 29.87 in 10.0 mi NW 15.0 mph - N/A   Scattered Clouds
9:55 PM 14.0 °F -2.0 °F 8.6 °F 79% 29.87 in 10.0 mi WNW 16.1 mph - N/A   Scattered Clouds
10:15 PM 14.0 °F -2.0 °F 8.6 °F 79% 29.87 in 10.0 mi WNW 16.1 mph - N/A   Clear
10:35 PM 14.0 °F -2.5 °F 8.6 °F 79% 29.88 in 10.0 mi NW 17.3 mph - N/A   Clear
10:55 PM 14.0 °F -2.0 °F 8.6 °F 79% 29.89 in 10.0 mi NW 16.1 mph - N/A   Clear
11:15 PM 12.2 °F -1.8 °F 6.8 °F 79% 29.90 in 10.0 mi NW 11.5 mph - N/A   Scattered Clouds
11:35 PM 10.4 °F -4.8 °F 6.8 °F 85% 29.90 in 10.0 mi West 12.7 mph - N/A   Scattered Clouds
11:55 PM 10.4 °F -2.4 °F 5.0 °F 79% 29.91 in 10.0 mi WNW 9.2 mph - N/A   Clear